Total_Precipitation_Accumulation
0.02 0.01 0.00 0.01 0.01 0.01 0.00 0.00 0.00 0.00 0.00 0.00 0.00 0.00 0.00 0.00 0.00 0.03 0.06 0.12 0.15 0.12 0.10 0.10 0.07 0.03 0.03 0.08 0.12 0.19 0.24 0.32 0.40 0.36 0.23 0.17 0.13 0.08 0.05 0.05 0.05 0.01 0.00
0.02 0.02 0.00 0.01 0.02 0.01 0.01 0.00 0.00 0.00 0.00 0.00 0.00 0.00 0.00 0.00 0.00 0.01 0.02 0.07 0.16 0.17 0.19 0.23 0.18 0.10 0.08 0.11 0.14 0.17 0.20 0.23 0.28 0.31 0.27 0.22 0.21 0.18 0.14 0.10 0.08 0.02 0.00
0.07 0.05 0.02 0.01 0.02 0.02 0.03 0.03 0.01 0.00 0.00 0.01 0.00 0.00 0.00 0.00 0.00 0.00 0.00 0.02 0.08 0.18 0.27 0.37 0.37 0.25 0.17 0.15 0.13 0.13 0.15 0.17 0.20 0.25 0.28 0.25 0.21 0.18 0.13 0.08 0.05 0.02 0.00
0.13 0.09 0.06 0.05 0.06 0.06 0.08 0.08 0.04 0.02 0.01 0.01 0.00 0.00 0.00 0.00 0.00 0.00 0.00 0.01 0.03 0.09 0.19 0.30 0.42 0.53 0.37 0.19 0.11 0.10 0.08 0.09 0.11 0.14 0.16 0.15 0.11 0.08 0.05 0.04 0.03 0.01 0.00
0.21 0.20 0.22 0.19 0.16 0.15 0.11 0.09 0.07 0.06 0.04 0.03 0.01 0.00 0.00 0.00 0.00 0.00 0.00 0.00 0.01 0.03 0.07 0.10 0.20 0.29 0.28 0.28 0.25 0.13 0.08 0.05 0.05 0.06 0.06 0.04 0.03 0.02 0.03 0.03 0.03 0.01 0.01
0.40 0.39 0.35 0.27 0.23 0.25 0.20 0.17 0.19 0.13 0.10 0.06 0.01 0.01 0.00 0.00 0.00 0.00 0.00 0.00 0.00 0.00 0.01 0.02 0.07 0.05 0.09 0.22 0.22 0.09 0.05 0.04 0.04 0.03 0.02 0.01 0.00 0.00 0.01 0.02 0.02 0.02 0.02
0.52 0.51 0.51 0.43 0.35 0.31 0.30 0.32 0.40 0.34 0.24 0.11 0.06 0.04 0.01 0.00 0.00 0.00 0.00 0.00 0.00 0.00 0.00 0.01 0.03 0.04 0.04 0.03 0.04 0.07 0.09 0.10 0.08 0.05 0.03 0.01 0.00 0.00 0.01 0.01 0.03 0.03 0.03
0.45 0.47 0.56 0.59 0.50 0.45 0.49 0.46 0.50 0.57 0.47 0.28 0.20 0.18 0.12 0.08 0.02 0.00 0.00 0.00 0.00 0.00 0.00 0.00 0.01 0.01 0.02 0.03 0.02 0.02 0.04 0.08 0.08 0.05 0.02 0.02 0.01 0.01 0.01 0.01 0.02 0.03 0.03
0.48 0.46 0.50 0.53 0.47 0.47 0.51 0.60 0.66 0.74 0.64 0.52 0.39 0.31 0.24 0.23 0.18 0.04 0.00 0.00 0.00 0.00 0.00 0.00 0.00 0.01 0.01 0.01 0.01 0.01 0.00 0.01 0.03 0.04 0.04 0.02 0.02 0.02 0.03 0.04 0.03 0.03 0.03
0.37 0.32 0.39 0.45 0.50 0.58 0.63 0.72 0.65 0.73 0.74 0.60 0.57 0.42 0.30 0.26 0.26 0.21 0.08 0.01 0.00 0.00 0.00 0.00 0.00 0.00 0.00 0.00 0.01 0.01 0.00 0.00 0.01 0.02 0.03 0.03 0.03 0.03 0.03 0.03 0.03 0.04 0.04
0.38 0.34 0.36 0.38 0.38 0.43 0.50 0.53 0.45 0.54 0.61 0.63 0.63 0.60 0.50 0.45 0.26 0.24 0.23 0.11 0.03 0.01 0.00 0.00 0.00 0.00 0.00 0.00 0.00 0.00 0.00 0.00 0.00 0.00 0.01 0.02 0.02 0.03 0.03 0.02 0.02 0.03 0.03
0.36 0.36 0.35 0.41 0.43 0.35 0.36 0.38 0.33 0.39 0.44 0.48 0.54 0.55 0.55 0.61 0.60 0.44 0.34 0.25 0.13 0.03 0.01 0.00 0.00 0.00 0.00 0.00 0.00 0.00 0.00 0.00 0.00 0.00 0.00 0.00 0.01 0.01 0.01 0.01 0.01 0.02 0.04
0.34 0.34 0.31 0.34 0.36 0.31 0.34 0.25 0.14 0.19 0.29 0.36 0.41 0.48 0.54 0.58 0.65 0.61 0.55 0.46 0.31 0.13 0.04 0.01 0.00 0.00 0.00 0.00 0.00 0.00 0.00 0.00 0.00 0.00 0.00 0.00 0.00 0.00 0.00 0.00 0.00 0.01 0.02
0.26 0.23 0.22 0.18 0.16 0.13 0.19 0.23 0.14 0.10 0.11 0.17 0.25 0.34 0.41 0.52 0.59 0.54 0.53 0.52 0.43 0.32 0.18 0.07 0.02 0.01 0.00 0.00 0.00 0.00 0.00 0.00 0.00 0.00 0.00 0.00 0.00 0.00 0.00 0.00 0.00 0.00 0.01
0.20 0.18 0.15 0.10 0.07 0.06 0.08 0.14 0.21 0.20 0.11 0.08 0.13 0.21 0.22 0.26 0.33 0.36 0.44 0.45 0.38 0.31 0.30 0.23 0.13 0.06 0.03 0.01 0.01 0.00 0.00 0.00 0.00 0.00 0.00 0.00 0.00 0.00 0.00 0.00 0.00 0.00 0.00
0.18 0.16 0.11 0.06 0.05 0.06 0.11 0.14 0.10 0.13 0.12 0.12 0.14 0.16 0.20 0.21 0.24 0.26 0.35 0.46 0.42 0.31 0.27 0.26 0.20 0.15 0.12 0.06 0.05 0.02 0.00 0.00 0.00 0.00 0.00 0.00 0.00 0.00 0.00 0.00 0.00 0.00 0.00
0.14 0.12 0.08 0.07 0.07 0.06 0.04 0.03 0.02 0.02 0.03 0.06 0.07 0.09 0.15 0.23 0.27 0.29 0.32 0.42 0.48 0.42 0.31 0.32 0.24 0.23 0.23 0.16 0.14 0.07 0.02 0.01 0.01 0.02 0.01 0.00 0.00 0.00 0.00 0.00 0.00 0.00 0.00
0.12 0.08 0.07 0.07 0.07 0.05 0.03 0.02 0.02 0.01 0.02 0.02 0.02 0.04 0.08 0.15 0.21 0.27 0.32 0.37 0.43 0.49 0.45 0.44 0.41 0.31 0.28 0.26 0.24 0.18 0.09 0.05 0.03 0.08 0.09 0.03 0.01 0.00 0.00 0.00 0.00 0.00 0.00
0.15 0.12 0.10 0.09 0.08 0.07 0.05 0.03 0.02 0.02 0.01 0.01 0.01 0.02 0.05 0.09 0.14 0.22 0.31 0.40 0.44 0.48 0.49 0.44 0.48 0.48 0.37 0.33 0.25 0.17 0.10 0.08 0.07 0.07 0.11 0.06 0.02 0.00 0.00 0.00 0.00 0.00 0.00
0.20 0.16 0.15 0.15 0.17 0.19 0.16 0.11 0.08 0.05 0.03 0.02 0.01 0.02 0.02 0.05 0.12 0.25 0.38 0.47 0.50 0.50 0.52 0.52 0.53 0.56 0.48 0.37 0.26 0.20 0.18 0.14 0.10 0.08 0.06 0.06 0.03 0.01 0.01 0.00 0.00 0.00 0.00
0.28 0.24 0.22 0.20 0.25 0.30 0.32 0.28 0.18 0.11 0.07 0.04 0.02 0.02 0.02 0.03 0.08 0.18 0.31 0.49 0.54 0.55 0.56 0.57 0.56 0.51 0.44 0.34 0.27 0.22 0.18 0.20 0.14 0.10 0.08 0.06 0.05 0.04 0.04 0.04 0.03 0.03 0.01
0.31 0.30 0.27 0.24 0.25 0.28 0.39 0.33 0.22 0.15 0.11 0.08 0.05 0.03 0.03 0.03 0.04 0.08 0.12 0.25 0.38 0.47 0.54 0.53 0.53 0.50 0.46 0.39 0.35 0.27 0.18 0.14 0.14 0.14 0.11 0.13 0.13 0.12 0.13 0.13 0.13 0.14 0.08
0.32 0.33 0.27 0.22 0.19 0.22 0.24 0.19 0.20 0.23 0.20 0.14 0.11 0.08 0.07 0.05 0.04 0.05 0.09 0.15 0.19 0.22 0.27 0.32 0.39 0.41 0.43 0.39 0.34 0.27 0.20 0.16 0.18 0.16 0.10 0.12 0.15 0.15 0.17 0.16 0.10 0.08 0.08
0.27 0.34 0.28 0.25 0.24 0.20 0.20 0.23 0.21 0.23 0.28 0.27 0.20 0.11 0.10 0.08 0.09 0.11 0.09 0.12 0.15 0.19 0.19 0.17 0.22 0.27 0.28 0.31 0.32 0.34 0.31 0.21 0.15 0.11 0.08 0.08 0.10 0.11 0.10 0.10 0.07 0.05 0.03
0.18 0.17 0.20 0.33 0.31 0.26 0.30 0.28 0.21 0.22 0.28 0.31 0.26 0.22 0.21 0.20 0.28 0.21 0.14 0.14 0.16 0.18 0.19 0.22 0.28 0.30 0.30 0.33 0.36 0.40 0.36 0.29 0.24 0.22 0.19 0.15 0.12 0.10 0.08 0.07 0.06 0.05 0.03
0.08 0.08 0.11 0.21 0.27 0.28 0.26 0.15 0.17 0.24 0.28 0.33 0.33 0.30 0.37 0.29 0.31 0.22 0.14 0.21 0.24 0.23 0.23 0.29 0.30 0.31 0.29 0.31 0.37 0.38 0.43 0.44 0.40 0.34 0.28 0.21 0.19 0.18 0.15 0.12 0.08 0.05 0.03